Tracking 26321 objects as of 27-Nov-2022
HD Live streaming from Space Station
objects crossing your sky now

STARLINK-4383

Track STARLINK-4383 now!
10-day predictions
STARLINK-4383 is classified as:


NORAD ID: 53473
Int'l Code: 2022-099J
Perigee: 569.5 km
Apogee: 570.8 km
Inclination: 97.7 °
Period: 95.9 minutes
Semi major axis: 6941 km
RCS: Unknown
Launch date: August 12, 2022
Source: United States (US)
Launch site: AIR FORCE WESTERN TEST RANGE (AFWTR)
aabbcc
Your satellite tracking list
Your tracking list is empty




NASA's NSSDC Master Catalog

Two Line Element Set (TLE):
1 53473U 22099J   22330.76998014  .00000649  00000-0  55074-4 0  9992
2 53473  97.6551  89.7264 0000913 240.8046 119.3087 15.01267604 16109
Source of the keplerian elements: AFSPC